TimeAKDT,TemperatureF,Dew PointF,Humidity,Sea Level PressureIn,VisibilityMPH,Wind Direction,Wind SpeedMPH,Gust SpeedMPH,PrecipitationIn,Events,Conditions,WindDirDegrees,DateUTC
12:16 AM,33.8,30.2,87,29.99,10.0,SSE,5.8,-,N/A,,Overcast,150,2012-10-01 08:16:00
12:36 AM,33.8,28.4,81,29.99,10.0,SE,6.9,-,N/A,,Overcast,140,2012-10-01 08:36:00
12:56 AM,33.8,28.4,81,29.99,10.0,SE,6.9,-,N/A,,Mostly Cloudy,140,2012-10-01 08:56:00
1:16 AM,32.0,28.4,87,29.99,10.0,SE,6.9,-,N/A,,Mostly Cloudy,140,2012-10-01 09:16:00
1:36 AM,30.2,26.6,86,30.00,10.0,SE,5.8,-,N/A,,Partly Cloudy,140,2012-10-01 09:36:00
1:56 AM,30.2,26.6,86,29.99,10.0,SE,6.9,-,N/A,,Clear,130,2012-10-01 09:56:00
2:16 AM,30.2,26.6,86,30.00,10.0,SE,5.8,-,N/A,,Clear,130,2012-10-01 10:16:00
2:36 AM,30.2,26.6,86,30.00,10.0,SE,6.9,-,N/A,,Clear,130,2012-10-01 10:36:00
2:56 AM,30.2,26.6,86,30.00,10.0,SE,6.9,-,N/A,,Clear,130,2012-10-01 10:56:00
3:16 AM,30.2,26.6,86,30.00,10.0,SE,4.6,-,N/A,,Clear,140,2012-10-01 11:16:00
3:36 AM,30.2,26.6,86,30.00,10.0,South,3.5,-,N/A,,Clear,170,2012-10-01 11:36:00
3:56 AM,28.4,24.8,86,30.00,10.0,Calm,Calm,-,N/A,,Clear,0,2012-10-01 11:56:00
4:16 AM,28.4,26.6,93,30.00,10.0,Calm,Calm,-,N/A,,Clear,0,2012-10-01 12:16:00
4:36 AM,26.6,26.6,100,29.99,10.0,West,4.6,-,N/A,,Clear,280,2012-10-01 12:36:00
5:16 AM,28.4,23.0,80,30.00,10.0,West,3.5,-,N/A,,Mostly Cloudy,280,2012-10-01 13:16:00
5:36 AM,28.4,24.8,86,30.00,10.0,Calm,Calm,-,N/A,,Overcast,0,2012-10-01 13:36:00
5:56 AM,32.0,26.6,80,29.99,10.0,ESE,11.5,-,N/A,,Overcast,120,2012-10-01 13:56:00
6:16 AM,32.0,26.6,80,29.99,10.0,ESE,11.5,-,N/A,,Mostly Cloudy,120,2012-10-01 14:16:00
6:36 AM,32.0,26.6,80,29.99,10.0,ESE,12.7,-,N/A,,Overcast,120,2012-10-01 14:36:00
6:56 AM,32.0,26.6,80,29.99,10.0,ESE,12.7,-,N/A,,Overcast,110,2012-10-01 14:56:00
7:16 AM,32.0,26.6,80,29.99,10.0,ESE,12.7,17.3,N/A,,Overcast,110,2012-10-01 15:16:00
7:36 AM,32.0,26.6,80,29.99,10.0,ESE,10.4,-,N/A,,Overcast,120,2012-10-01 15:36:00
7:56 AM,32.0,26.6,80,29.99,10.0,ESE,10.4,-,N/A,,Overcast,120,2012-10-01 15:56:00
8:16 AM,32.0,24.8,75,29.98,10.0,ESE,12.7,-,N/A,,Overcast,120,2012-10-01 16:16:00
8:36 AM,32.0,24.8,75,29.98,10.0,ESE,12.7,-,N/A,,Overcast,110,2012-10-01 16:36:00
8:56 AM,33.8,24.8,70,29.98,10.0,ESE,11.5,18.4,N/A,,Overcast,110,2012-10-01 16:56:00
9:16 AM,33.8,23.0,65,29.98,10.0,ESE,11.5,16.1,N/A,,Overcast,110,2012-10-01 17:16:00
9:36 AM,33.8,23.0,65,29.97,10.0,ESE,11.5,18.4,N/A,,Overcast,120,2012-10-01 17:36:00
9:56 AM,33.8,21.2,60,29.97,10.0,ESE,13.8,-,N/A,,Overcast,110,2012-10-01 17:56:00
10:16 AM,33.8,21.2,60,29.97,10.0,ESE,17.3,-,N/A,,Overcast,110,2012-10-01 18:16:00
10:36 AM,33.8,21.2,60,29.97,10.0,ESE,13.8,20.7,N/A,,Overcast,110,2012-10-01 18:36:00
10:56 AM,33.8,23.0,65,29.97,10.0,ESE,16.1,21.9,N/A,,Overcast,110,2012-10-01 18:56:00
11:16 AM,33.8,21.2,60,29.97,10.0,ESE,17.3,-,N/A,,Overcast,120,2012-10-01 19:16:00
11:36 AM,33.8,21.2,60,29.97,10.0,ESE,15.0,24.2,N/A,,Overcast,120,2012-10-01 19:36:00
11:56 AM,33.8,23.0,65,29.97,10.0,ESE,13.8,-,N/A,,Overcast,120,2012-10-01 19:56:00
12:16 PM,35.6,23.0,60,29.96,10.0,ESE,18.4,23.0,N/A,,Scattered Clouds,110,2012-10-01 20:16:00
12:36 PM,33.8,21.2,60,29.96,10.0,ESE,16.1,24.2,N/A,,Clear,110,2012-10-01 20:36:00
12:56 PM,35.6,23.0,60,29.96,10.0,ESE,19.6,26.5,N/A,,Clear,110,2012-10-01 20:56:00
1:16 PM,35.6,23.0,60,29.95,10.0,ESE,20.7,25.3,N/A,,Clear,110,2012-10-01 21:16:00
1:36 PM,35.6,23.0,60,29.95,10.0,ESE,18.4,25.3,N/A,,Clear,110,2012-10-01 21:36:00
1:56 PM,35.6,23.0,60,29.94,10.0,ESE,19.6,25.3,N/A,,Clear,120,2012-10-01 21:56:00
2:16 PM,35.6,23.0,60,29.94,10.0,ESE,17.3,24.2,N/A,,Clear,110,2012-10-01 22:16:00
2:36 PM,35.6,23.0,60,29.94,10.0,ESE,16.1,26.5,N/A,,Clear,110,2012-10-01 22:36:00
2:56 PM,35.6,23.0,60,29.93,10.0,ESE,19.6,26.5,N/A,,Clear,120,2012-10-01 22:56:00
3:16 PM,37.4,23.0,56,29.92,10.0,ESE,16.1,29.9,N/A,,Clear,120,2012-10-01 23:16:00
3:36 PM,37.4,23.0,56,29.92,10.0,ESE,20.7,28.8,N/A,,Clear,120,2012-10-01 23:36:00
3:56 PM,37.4,23.0,56,29.91,10.0,ESE,23.0,29.9,N/A,,Clear,110,2012-10-01 23:56:00
4:16 PM,39.2,24.8,56,29.90,10.0,ESE,21.9,28.8,N/A,,Clear,110,2012-10-02 00:16:00
4:36 PM,39.2,23.0,52,29.90,10.0,ESE,23.0,27.6,N/A,,Partly Cloudy,120,2012-10-02 00:36:00
4:56 PM,39.2,24.8,56,29.90,10.0,ESE,13.8,20.7,N/A,,Partly Cloudy,120,2012-10-02 00:56:00
5:16 PM,39.2,24.8,56,29.90,10.0,SE,17.3,23.0,N/A,,Mostly Cloudy,130,2012-10-02 01:16:00
5:36 PM,37.4,24.8,60,29.90,10.0,ESE,18.4,23.0,N/A,,Overcast,120,2012-10-02 01:36:00
5:56 PM,37.4,24.8,60,29.89,10.0,SE,17.3,25.3,N/A,,Overcast,130,2012-10-02 01:56:00
6:16 PM,37.4,24.8,60,29.88,10.0,ESE,18.4,28.8,N/A,,Overcast,120,2012-10-02 02:16:00
6:36 PM,37.4,24.8,60,29.88,10.0,ESE,19.6,24.2,N/A,,Overcast,120,2012-10-02 02:36:00
6:56 PM,37.4,24.8,60,29.87,10.0,SE,20.7,29.9,N/A,,Overcast,130,2012-10-02 02:56:00
7:36 PM,35.6,26.6,70,29.88,10.0,ESE,20.7,33.4,N/A,,Overcast,120,2012-10-02 03:36:00
8:16 PM,35.6,26.6,70,29.87,10.0,ESE,19.6,31.1,N/A,,Overcast,120,2012-10-02 04:16:00
8:36 PM,35.6,26.6,70,29.87,10.0,ESE,21.9,28.8,N/A,,Overcast,120,2012-10-02 04:36:00
8:56 PM,35.6,26.6,70,29.87,10.0,ESE,25.3,29.9,N/A,,Overcast,110,2012-10-02 04:56:00
9:16 PM,35.6,28.4,75,29.87,10.0,ESE,20.7,28.8,N/A,,Overcast,110,2012-10-02 05:16:00
9:36 PM,33.8,28.4,81,29.86,10.0,ESE,17.3,24.2,N/A,,Overcast,110,2012-10-02 05:36:00
9:56 PM,35.6,28.4,75,29.85,10.0,ESE,19.6,27.6,N/A,,Overcast,110,2012-10-02 05:56:00
10:16 PM,35.6,28.4,75,29.84,10.0,East,24.2,28.8,N/A,,Overcast,100,2012-10-02 06:16:00
10:56 PM,35.6,28.4,75,29.83,10.0,ESE,20.7,26.5,N/A,,Mostly Cloudy,110,2012-10-02 06:56:00
11:16 PM,35.6,28.4,75,29.83,10.0,ESE,20.7,29.9,N/A,,Overcast,110,2012-10-02 07:16:00
11:36 PM,33.8,28.4,81,29.82,10.0,ESE,25.3,29.9,N/A,,Overcast,110,2012-10-02 07:36:00
11:56 PM,33.8,28.4,81,29.82,8.0,ESE,20.7,28.8,N/A,,Overcast,110,2012-10-02 07:56:00